OPS 4682 DEB, 19954

Orbit data source: Space-Track

OPS 4682 DEB, 19954 is space debris in LEO originally from a launch on Sat, 03 Apr 1965 UTC launched from the Air Force Western Test Range (AFWTR). Debris objects in space refer to the collection of defunct objects orbiting the Earth. Examples of debris include non-operational satellites, rocket bodies, and fragments generated from explosions, collisions, or faulty payload assembly.

Loading next visibility...
Identifier
19954, 1965-027AZ
Orbit
LEO
Country
Flag of USUS
Related business
Manufacturer
Unknown
Mission
Spacecraft
Bus & Motor
Unknown
Mass
Unknown
Launch date (UTC)
1965-04-03 (61 years ago)
Launch vehicle
Unknown
Launch site
Air Force Western Test Range (AFWTR)
Object type
Payload
Rocket body
Debris
Shape & HBR
Unknown shape, 0.1 m
Radar Cross Section
Small (<0.1 m²)

Expand to show TLE details & history
Last TLE update: 14 hours ago

TLE from 14 hours ago
0 OPS 4682 DEB
1 19954U 65027AZ  25340.74727485  .00001885  00000-0  58000-2 0  9993
2 19954  90.3855  72.0210 0028255 295.7314 218.2083 13.05023056750444
Epoch: 2025-12-06T17:56Z
TLE epoch observation values (Epoch: 2025-12-06T17:56:04.547Z)
Latitude
26.29014°
Longitude
-92.57903°
Altitude
1,262.617 km
Speed
7.218 km/s
True Right ascension
16h 48m 50s
True Declination
26° 09' 46"
Sunlit
Object was in daylight at epoch
Visualization orbit readout
Latitude
Unknown
Longitude
Unknown
Altitude
Unknown
Speed
Unknown
Apparent Right ascension
Unknown
Apparent Declination
Unknown
Sunlit
N/A
Visualization observer readout
Local Sidereal Time
06:12:43
Azimuth
Unknown
Elevation
Unknown
Doppler factor
Unknown
Orbital elements
Apogee altitude
1,261.113 km
Perigee altitude
1,218.065 km
Semi-major axis
7,617.726 km
Eccentricity
0.00283
Inclination
90.3855°
RAAN
72.021°
Arg. of periapsis
295.7314°
True anomaly
218.00859°
Mean anomaly
218.2083°
Eccentric anomaly
218.10839°
Mean motion
3.26441 °/min
Orbital period
110.28 mins
BSTAR
0.0058
Loading maneuver chart data...
Computing Atmospheric mass density...
Loading historical data...
Loading historical data...
Loading historical data...
Loading historical data...
Loading historical data...
Loading historical data...
Loading historical data...

Documentation

Showing up to 5 results
|